EFW8DF EGKK-LPMA

Flight info

Callsign EFW8DF
Flight time N/A
Altitude 35000
Route IMVUR1Z DCT SAM M195 LORKU DCT EBOMO DCT COQUE DCT KORUL DCT DEMOS DCT ASMAR DCT VERAM DCT TELMU DCT LIDRO LIDRO1P
Aircraft A321/M-SDE3FGIJ1KRWXY/SB1

Departure

Time 2026-05-04 10:35
Airport London Gatwick Airport (EGKK)

Arrival

Time N/A
Airport Cristiano Ronaldo International Airport (LPMA)
Time Latitude Longitude Altitude Speed Heading
2026-05-04 10:10 51.15899 -0.16846 209 ft 0 kts 171°
2026-05-04 10:22 51.15882 -0.16877 217 ft 13 kts 265°
2026-05-04 10:22 51.15906 -0.16994 209 ft 5 kts 315°
2026-05-04 10:23 51.15918 -0.17033 218 ft 1 kts 251°
2026-05-04 10:23 51.15911 -0.17041 209 ft 0 kts 204°
2026-05-04 10:25 51.15840 -0.17084 209 ft 9 kts 198°
2026-05-04 10:25 51.15804 -0.17185 213 ft 13 kts 259°
2026-05-04 10:25 51.15785 -0.17339 209 ft 16 kts 258°
2026-05-04 10:25 51.15760 -0.17528 213 ft 19 kts 258°
2026-05-04 10:26 51.15730 -0.17743 212 ft 21 kts 257°
2026-05-04 10:26 51.15697 -0.17981 212 ft 23 kts 257°
2026-05-04 10:26 51.15662 -0.18238 218 ft 24 kts 258°
2026-05-04 10:26 51.15607 -0.18355 209 ft 15 kts 178°
2026-05-04 10:27 51.15492 -0.18315 211 ft 20 kts 167°
2026-05-04 10:27 51.15350 -0.18264 211 ft 22 kts 167°
2026-05-04 10:27 51.15211 -0.18217 209 ft 13 kts 186°
2026-05-04 10:27 51.15185 -0.18338 216 ft 15 kts 264°
2026-05-04 10:28 51.15159 -0.18530 217 ft 21 kts 258°
2026-05-04 10:28 51.15125 -0.18772 211 ft 24 kts 257°
2026-05-04 10:28 51.15088 -0.19037 217 ft 25 kts 257°
2026-05-04 10:28 51.15049 -0.19320 212 ft 27 kts 258°
2026-05-04 10:29 51.15022 -0.19521 210 ft 28 kts 258°
2026-05-04 10:29 51.14979 -0.19830 211 ft 29 kts 257°
2026-05-04 10:29 51.14962 -0.19956 209 ft 8 kts 257°
2026-05-04 10:29 51.14946 -0.20066 211 ft 13 kts 258°
2026-05-04 10:30 51.14922 -0.20240 211 ft 19 kts 258°
2026-05-04 10:30 51.14892 -0.20455 212 ft 10 kts 257°
2026-05-04 10:30 51.14874 -0.20579 213 ft 13 kts 253°
2026-05-04 10:30 51.14801 -0.20675 209 ft 16 kts 208°
2026-05-04 10:31 51.14749 -0.20828 215 ft 18 kts 259°
2026-05-04 10:31 51.14721 -0.21033 213 ft 20 kts 257°
2026-05-04 10:32 51.14687 -0.21278 212 ft 9 kts 256°
2026-05-04 10:33 51.14631 -0.21332 209 ft 12 kts 171°
2026-05-04 10:33 51.14599 -0.21323 214 ft 3 kts 166°
2026-05-04 10:33 51.14562 -0.21300 210 ft 9 kts 151°
2026-05-04 10:33 51.14515 -0.21200 210 ft 13 kts 99°
2026-05-04 10:34 51.14519 -0.21154 208 ft 0 kts 74°
2026-05-04 10:34 51.14521 -0.21144 208 ft 3 kts 74°
2026-05-04 10:34 51.14539 -0.21018 218 ft 34 kts 77°
2026-05-04 10:34 51.14638 -0.20306 211 ft 97 kts 79°
2026-05-04 10:35 51.14828 -0.18924 217 ft 150 kts 79°
2026-05-04 10:35 51.15090 -0.17152 477 ft 168 kts 76°
2026-05-04 10:35 51.15342 -0.15331 1109 ft 169 kts 77°
2026-05-04 10:35 51.15572 -0.13501 1652 ft 173 kts 78°
2026-05-04 10:36 51.15823 -0.11542 1894 ft 189 kts 77°
2026-05-04 10:36 51.16123 -0.09426 2220 ft 203 kts 77°
2026-05-04 10:36 51.16601 -0.07223 2608 ft 213 kts 58°
2026-05-04 10:36 51.17609 -0.05586 2960 ft 214 kts 30°
2026-05-04 10:37 51.19083 -0.04965 3013 ft 222 kts 358°
2026-05-04 10:37 51.20563 -0.05404 3075 ft 223 kts 342°
2026-05-04 10:37 51.21908 -0.06618 3522 ft 228 kts 316°
2026-05-04 10:37 51.22745 -0.08743 4067 ft 230 kts 285°
2026-05-04 10:39 51.20997 -0.25339 7125 ft 273 kts 258°
2026-05-04 10:39 51.20643 -0.28333 7781 ft 275 kts 258°
2026-05-04 10:39 51.20290 -0.31331 8412 ft 277 kts 258°
2026-05-04 10:40 51.19935 -0.34356 9035 ft 279 kts 258°
2026-05-04 10:40 51.19553 -0.37407 9685 ft 281 kts 257°
2026-05-04 10:40 51.19148 -0.40461 10276 ft 283 kts 257°
2026-05-04 10:40 51.18735 -0.43569 10831 ft 285 kts 257°
2026-05-04 10:41 51.18330 -0.46636 11374 ft 287 kts 257°
2026-05-04 10:41 51.17917 -0.49767 11925 ft 290 kts 256°
2026-05-04 10:41 51.17483 -0.52907 12474 ft 292 kts 253°
2026-05-04 10:41 51.16783 -0.55978 12870 ft 299 kts 246°
2026-05-04 10:42 51.15944 -0.59096 13125 ft 313 kts 245°
2026-05-04 10:42 51.15070 -0.62316 13325 ft 327 kts 245°
2026-05-04 10:42 51.14152 -0.65717 13536 ft 341 kts 245°
2026-05-04 10:42 51.13201 -0.69256 13741 ft 354 kts 245°
2026-05-04 10:43 51.12217 -0.72923 13946 ft 366 kts 246°
2026-05-04 10:44 51.05032 -0.99629 17183 ft 386 kts 245°
2026-05-04 10:45 51.03966 -1.03566 17639 ft 389 kts 245°
2026-05-04 10:45 51.02892 -1.07519 18098 ft 391 kts 245°
2026-05-04 10:45 51.01806 -1.11512 18519 ft 394 kts 245°
2026-05-04 10:45 51.00717 -1.15507 18916 ft 396 kts 245°
2026-05-04 10:46 50.99619 -1.19529 19322 ft 398 kts 245°
2026-05-04 10:46 50.98519 -1.23559 19724 ft 399 kts 245°
2026-05-04 10:46 50.97416 -1.27595 20110 ft 401 kts 245°
2026-05-04 10:46 50.96254 -1.31575 20487 ft 403 kts 239°
2026-05-04 10:47 50.94603 -1.35153 20851 ft 402 kts 225°
2026-05-04 10:47 50.92425 -1.37934 21220 ft 403 kts 213°
2026-05-04 10:47 50.90069 -1.40355 21594 ft 405 kts 212°
2026-05-04 10:47 50.87688 -1.42757 22005 ft 407 kts 212°
2026-05-04 10:49 50.70845 -1.60124 24312 ft 418 kts 212°
2026-05-04 10:49 50.68420 -1.62619 24612 ft 419 kts 212°
2026-05-04 10:50 50.65970 -1.65145 24912 ft 419 kts 212°
2026-05-04 10:51 50.48702 -1.82829 26771 ft 426 kts 212°
2026-05-04 10:52 50.46218 -1.85361 27053 ft 427 kts 212°
2026-05-04 10:52 50.43723 -1.87905 27272 ft 428 kts 211°
2026-05-04 10:52 50.41218 -1.90448 27495 ft 429 kts 211°
2026-05-04 10:54 50.23779 -2.08085 29621 ft 421 kts 211°
2026-05-04 10:54 50.21305 -2.10515 29921 ft 420 kts 210°
2026-05-04 10:56 50.04031 -2.27264 31306 ft 418 kts 210°
2026-05-04 10:56 50.01559 -2.29653 31468 ft 420 kts 210°
2026-05-04 10:56 49.99067 -2.32055 31575 ft 421 kts 210°
2026-05-04 10:57 49.96577 -2.34457 31691 ft 422 kts 210°
2026-05-04 10:57 49.94082 -2.36861 31845 ft 423 kts 210°
2026-05-04 10:57 49.91581 -2.39265 32033 ft 423 kts 210°
2026-05-04 10:57 49.89081 -2.41672 32205 ft 423 kts 210°
2026-05-04 10:58 49.86578 -2.44083 32359 ft 423 kts 210°
2026-05-04 10:58 49.84075 -2.46492 32505 ft 423 kts 210°
2026-05-04 10:58 49.81572 -2.48896 32676 ft 424 kts 210°
2026-05-04 10:58 49.79071 -2.51296 32823 ft 424 kts 210°
2026-05-04 10:59 49.76558 -2.53699 32961 ft 424 kts 210°
2026-05-04 10:59 49.71530 -2.58487 33054 ft 425 kts 210°
2026-05-04 11:00 49.66508 -2.63278 33024 ft 424 kts 210°
2026-05-04 11:02 49.47213 -2.81558 33007 ft 426 kts 210°
2026-05-04 11:05 49.09157 -3.17100 33013 ft 429 kts 210°
2026-05-04 11:06 49.04039 -3.21829 33028 ft 429 kts 210°
2026-05-04 11:06 48.98939 -3.26537 33014 ft 428 kts 210°
2026-05-04 11:10 48.63186 -3.59185 33017 ft 431 kts 209°
2026-05-04 11:12 48.42616 -3.77723 32978 ft 430 kts 209°
2026-05-04 11:12 48.37471 -3.82337 32975 ft 430 kts 209°
2026-05-04 11:13 48.32328 -3.86939 32991 ft 431 kts 209°
2026-05-04 11:13 48.27158 -3.91549 32978 ft 433 kts 209°
2026-05-04 11:16 48.00731 -4.14938 32995 ft 433 kts 209°
2026-05-04 11:16 47.95506 -4.19524 32995 ft 433 kts 209°
2026-05-04 11:17 47.90352 -4.24057 33005 ft 432 kts 210°
2026-05-04 11:19 47.71945 -4.40683 32994 ft 447 kts 211°
2026-05-04 11:19 47.70169 -4.42324 32992 ft 447 kts 211°
2026-05-04 11:19 47.64889 -4.47199 32992 ft 446 kts 211°
2026-05-04 11:20 47.59623 -4.52052 32995 ft 446 kts 211°
2026-05-04 11:20 47.54352 -4.56897 32994 ft 446 kts 211°
2026-05-04 11:22 47.33255 -4.76155 32997 ft 445 kts 211°
2026-05-04 11:23 47.27981 -4.80948 33000 ft 447 kts 211°
2026-05-04 11:25 47.09522 -4.97612 33007 ft 446 kts 211°
2026-05-04 11:25 47.04224 -5.02375 33000 ft 445 kts 211°
2026-05-04 11:27 46.80487 -5.23654 33002 ft 443 kts 211°
2026-05-04 11:28 46.75218 -5.28343 33003 ft 444 kts 210°
2026-05-04 11:28 46.69941 -5.33032 33010 ft 445 kts 210°
2026-05-04 11:29 46.64650 -5.37717 33005 ft 445 kts 210°
2026-05-04 11:29 46.59355 -5.42397 33007 ft 445 kts 210°
2026-05-04 11:33 46.22221 -5.74912 33007 ft 446 kts 210°
2026-05-04 11:33 46.16905 -5.79530 33006 ft 446 kts 210°
2026-05-04 11:34 46.11595 -5.84139 33006 ft 446 kts 210°
2026-05-04 11:34 46.06275 -5.88739 33006 ft 446 kts 210°
2026-05-04 11:35 46.00952 -5.93322 33004 ft 446 kts 210°
2026-05-04 11:35 45.95626 -5.97901 33005 ft 448 kts 211°
2026-05-04 11:36 45.90273 -6.02494 33006 ft 448 kts 211°
2026-05-04 11:36 45.84916 -6.07082 33006 ft 448 kts 210°
2026-05-04 11:37 45.79559 -6.11661 33011 ft 448 kts 211°
2026-05-04 11:37 45.74219 -6.16212 33006 ft 446 kts 211°
2026-05-04 11:38 45.68873 -6.20757 33003 ft 447 kts 210°
2026-05-04 11:38 45.63520 -6.25297 33008 ft 447 kts 210°
2026-05-04 11:39 45.58162 -6.29832 33011 ft 448 kts 211°
2026-05-04 11:41 45.39418 -6.45619 33012 ft 447 kts 211°
2026-05-04 11:41 45.34070 -6.50097 33017 ft 445 kts 211°
2026-05-04 11:42 45.28727 -6.54566 33017 ft 446 kts 211°
2026-05-04 11:42 45.23384 -6.59021 33015 ft 447 kts 211°
2026-05-04 11:43 45.18014 -6.63494 33015 ft 448 kts 211°
2026-05-04 11:43 45.12673 -6.67935 33019 ft 446 kts 211°
2026-05-04 11:44 45.07287 -6.72401 33013 ft 447 kts 211°
2026-05-04 11:44 45.01920 -6.76835 33021 ft 447 kts 211°
2026-05-04 11:45 44.96552 -6.81263 33014 ft 446 kts 211°
2026-05-04 11:45 44.91197 -6.85672 33021 ft 445 kts 211°
2026-05-04 11:46 44.85831 -6.90085 33024 ft 448 kts 211°
2026-05-04 11:46 44.80498 -6.94663 33020 ft 449 kts 213°
2026-05-04 11:47 44.75226 -6.99342 33021 ft 447 kts 213°
2026-05-04 11:47 44.69967 -7.04002 33020 ft 447 kts 213°
2026-05-04 11:48 44.64699 -7.08654 33022 ft 447 kts 213°
2026-05-04 11:48 44.59432 -7.13292 33022 ft 447 kts 213°
2026-05-04 11:49 44.54159 -7.17929 33021 ft 447 kts 213°
2026-05-04 11:49 44.48892 -7.22553 33033 ft 447 kts 213°
2026-05-04 11:50 44.43595 -7.27188 33024 ft 449 kts 213°
2026-05-04 11:50 44.38331 -7.31789 33021 ft 449 kts 213°
2026-05-04 11:51 44.33039 -7.36404 33032 ft 448 kts 213°
2026-05-04 11:51 44.27750 -7.41005 33036 ft 448 kts 213°
2026-05-04 11:52 44.22451 -7.45599 33032 ft 448 kts 213°
2026-05-04 11:52 44.17159 -7.50181 33033 ft 448 kts 213°
2026-05-04 11:53 44.11871 -7.54751 33038 ft 447 kts 213°
2026-05-04 11:53 44.06581 -7.59318 33038 ft 447 kts 213°
2026-05-04 11:55 43.85373 -7.77515 33039 ft 448 kts 213°
2026-05-04 11:56 43.80069 -7.82043 33038 ft 447 kts 213°
2026-05-04 11:56 43.74772 -7.86552 33022 ft 447 kts 213°
2026-05-04 11:57 43.69481 -7.91051 33040 ft 446 kts 213°
2026-05-04 11:57 43.65052 -7.94809 33042 ft 446 kts 213°
2026-05-04 11:58 43.59763 -7.99283 33042 ft 446 kts 213°
2026-05-04 11:58 43.54509 -8.03719 33026 ft 446 kts 213°
2026-05-04 11:59 43.49301 -8.08110 33049 ft 445 kts 214°
2026-05-04 11:59 43.44018 -8.12554 33064 ft 445 kts 214°
2026-05-04 12:00 43.38733 -8.16988 33067 ft 445 kts 213°
2026-05-04 12:00 43.33443 -8.21420 33057 ft 445 kts 214°
2026-05-04 12:01 43.28178 -8.25827 33081 ft 443 kts 214°
2026-05-04 12:02 43.09681 -8.41219 33065 ft 445 kts 214°
2026-05-04 12:03 43.04390 -8.45601 33060 ft 444 kts 214°
2026-05-04 12:03 42.99108 -8.49971 33065 ft 445 kts 214°
2026-05-04 12:04 42.93814 -8.54339 33069 ft 444 kts 214°
2026-05-04 12:04 42.88511 -8.58704 33059 ft 444 kts 214°
2026-05-04 12:05 42.83233 -8.63038 33071 ft 444 kts 214°
2026-05-04 12:05 42.77940 -8.67380 33073 ft 444 kts 214°
2026-05-04 12:06 42.72686 -8.71681 33079 ft 444 kts 214°
2026-05-04 12:06 42.67348 -8.76036 33066 ft 445 kts 215°
2026-05-04 12:07 42.62056 -8.80347 33078 ft 443 kts 215°
2026-05-04 12:07 42.56769 -8.84648 33084 ft 444 kts 215°
2026-05-04 12:08 42.51468 -8.88951 33070 ft 444 kts 215°
2026-05-04 12:08 42.46198 -8.93222 33084 ft 444 kts 215°
2026-05-04 12:09 42.40894 -8.97512 33067 ft 443 kts 215°
2026-05-04 12:09 42.35562 -9.01819 33087 ft 444 kts 215°
2026-05-04 12:10 42.30292 -9.06063 33094 ft 444 kts 215°
2026-05-04 12:10 42.24989 -9.10326 33056 ft 444 kts 215°
2026-05-04 12:11 42.19672 -9.14591 33088 ft 444 kts 216°
2026-05-04 12:11 42.14362 -9.18843 33098 ft 444 kts 216°
2026-05-04 12:12 42.09047 -9.23084 33104 ft 444 kts 216°
2026-05-04 12:12 42.03731 -9.27329 33107 ft 444 kts 216°
2026-05-04 12:14 41.82980 -9.44969 33108 ft 440 kts 219°
2026-05-04 12:15 41.77910 -9.49599 33099 ft 440 kts 220°
2026-05-04 12:15 41.72852 -9.54205 33113 ft 440 kts 220°
2026-05-04 12:16 41.67789 -9.58813 33116 ft 440 kts 220°
2026-05-04 12:16 41.62721 -9.63419 33116 ft 440 kts 220°
2026-05-04 12:17 41.57655 -9.68005 33084 ft 440 kts 220°
2026-05-04 12:17 41.52590 -9.72587 33110 ft 439 kts 220°
2026-05-04 12:18 41.47523 -9.77151 33118 ft 439 kts 220°
2026-05-04 12:18 41.42454 -9.81711 33122 ft 439 kts 220°
2026-05-04 12:19 41.37427 -9.86233 33117 ft 440 kts 220°
2026-05-04 12:19 41.32312 -9.90824 33105 ft 440 kts 220°
2026-05-04 12:20 41.27233 -9.95365 33121 ft 440 kts 220°
2026-05-04 12:20 41.22150 -9.99902 33124 ft 440 kts 220°
2026-05-04 12:21 41.17068 -10.04436 33126 ft 440 kts 220°
2026-05-04 12:21 41.11992 -10.08962 33128 ft 440 kts 220°
2026-05-04 12:22 41.06908 -10.13485 33126 ft 440 kts 220°
2026-05-04 12:22 41.01848 -10.17967 33132 ft 440 kts 220°
2026-05-04 12:23 40.96751 -10.22474 33120 ft 441 kts 220°
2026-05-04 12:23 40.91638 -10.26988 33127 ft 442 kts 220°
2026-05-04 12:24 40.86524 -10.31501 33126 ft 442 kts 220°
2026-05-04 12:24 40.81400 -10.36017 33134 ft 443 kts 220°
2026-05-04 12:25 40.76311 -10.40483 33136 ft 443 kts 220°
2026-05-04 12:25 40.71136 -10.45026 33140 ft 443 kts 220°
2026-05-04 12:26 40.66006 -10.49523 33141 ft 443 kts 220°
2026-05-04 12:26 40.60877 -10.54007 33129 ft 443 kts 220°
2026-05-04 12:27 40.55738 -10.58489 33140 ft 443 kts 220°
2026-05-04 12:27 40.50587 -10.62973 33142 ft 444 kts 220°
2026-05-04 12:28 40.45431 -10.67447 33142 ft 444 kts 220°
2026-05-04 12:28 40.40275 -10.71916 33105 ft 444 kts 220°
2026-05-04 12:29 40.35122 -10.76370 33144 ft 444 kts 220°
2026-05-04 12:29 40.29949 -10.80839 33147 ft 444 kts 220°
2026-05-04 12:30 40.24791 -10.85297 33157 ft 444 kts 220°
2026-05-04 12:30 40.19632 -10.89740 33147 ft 444 kts 220°
2026-05-04 12:31 40.14459 -10.94183 33144 ft 445 kts 220°
2026-05-04 12:31 40.09273 -10.98629 33150 ft 446 kts 220°
2026-05-04 12:32 40.01490 -11.05291 33156 ft 446 kts 220°
2026-05-04 12:33 39.96293 -11.09725 33155 ft 446 kts 220°
2026-05-04 12:33 39.91099 -11.14148 33143 ft 446 kts 220°
2026-05-04 12:34 39.85895 -11.18575 33154 ft 447 kts 220°
2026-05-04 12:34 39.80685 -11.22988 33158 ft 447 kts 220°
2026-05-04 12:35 39.75478 -11.27408 33156 ft 447 kts 220°
2026-05-04 12:35 39.70264 -11.31819 33156 ft 447 kts 220°
2026-05-04 12:36 39.65042 -11.36231 33153 ft 448 kts 220°
2026-05-04 12:36 39.59810 -11.40639 33160 ft 448 kts 220°
2026-05-04 12:37 39.54581 -11.45034 33161 ft 448 kts 220°
2026-05-04 12:37 39.49344 -11.49431 33165 ft 449 kts 220°
2026-05-04 12:38 39.44105 -11.53825 33143 ft 449 kts 219°
2026-05-04 12:38 39.38853 -11.58215 33156 ft 449 kts 219°
2026-05-04 12:39 39.33612 -11.62589 33166 ft 449 kts 219°
2026-05-04 12:39 39.28356 -11.66968 33166 ft 449 kts 219°
2026-05-04 12:40 39.23959 -11.70622 33166 ft 449 kts 219°
2026-05-04 12:40 39.18706 -11.74988 33161 ft 449 kts 219°
2026-05-04 12:41 39.13452 -11.79341 33168 ft 449 kts 219°
2026-05-04 12:41 39.08230 -11.83662 33170 ft 449 kts 219°
2026-05-04 12:42 39.02935 -11.88028 33174 ft 449 kts 219°
2026-05-04 12:42 38.97676 -11.92372 33174 ft 449 kts 219°
2026-05-04 12:43 38.92416 -11.96711 33167 ft 450 kts 219°
2026-05-04 12:43 38.87145 -12.01042 33177 ft 450 kts 219°
2026-05-04 12:44 38.81909 -12.05331 33155 ft 450 kts 219°
2026-05-04 12:44 38.76623 -12.09659 33175 ft 451 kts 219°
2026-05-04 12:45 38.71341 -12.13978 33153 ft 451 kts 219°
2026-05-04 12:45 38.66111 -12.18236 33175 ft 451 kts 219°
2026-05-04 12:46 38.60827 -12.22550 33181 ft 451 kts 219°
2026-05-04 12:46 38.55538 -12.26849 33190 ft 451 kts 219°
2026-05-04 12:47 38.50239 -12.31149 33197 ft 451 kts 219°
2026-05-04 12:47 38.44955 -12.35432 33167 ft 451 kts 219°
2026-05-04 12:48 38.39656 -12.39710 33182 ft 451 kts 219°
2026-05-04 12:48 38.34353 -12.43992 33177 ft 452 kts 219°
2026-05-04 12:49 38.29095 -12.48235 33190 ft 452 kts 219°
2026-05-04 12:49 38.23780 -12.52505 33191 ft 452 kts 219°
2026-05-04 12:50 38.18470 -12.56765 33179 ft 452 kts 219°
2026-05-04 12:50 38.13162 -12.61022 33189 ft 451 kts 219°
2026-05-04 12:51 38.07850 -12.65274 33194 ft 451 kts 219°
2026-05-04 12:51 38.02527 -12.69531 33197 ft 451 kts 219°
2026-05-04 12:52 37.97212 -12.73759 33198 ft 451 kts 219°
2026-05-04 12:52 37.91901 -12.77994 33181 ft 451 kts 218°
2026-05-04 12:53 37.86584 -12.82217 33196 ft 451 kts 218°
2026-05-04 12:53 37.81278 -12.86426 33197 ft 451 kts 218°
2026-05-04 12:54 37.75967 -12.90637 33198 ft 451 kts 218°
2026-05-04 12:54 37.70650 -12.94840 33197 ft 451 kts 218°
2026-05-04 12:55 37.65330 -12.99040 33198 ft 451 kts 218°
2026-05-04 12:55 37.60009 -13.03230 33190 ft 451 kts 218°
2026-05-04 12:56 37.54692 -13.07413 33198 ft 451 kts 218°
2026-05-04 12:56 37.49375 -13.11586 33201 ft 451 kts 218°
2026-05-04 12:57 37.44054 -13.15759 33170 ft 450 kts 218°
2026-05-04 12:57 37.38758 -13.19904 33210 ft 448 kts 218°
2026-05-04 12:58 37.33453 -13.24047 33212 ft 448 kts 218°
2026-05-04 12:58 37.28155 -13.28174 33202 ft 448 kts 218°
2026-05-04 12:59 37.22890 -13.32277 33168 ft 448 kts 217°
2026-05-04 12:59 37.17554 -13.36426 33195 ft 448 kts 217°
2026-05-04 13:00 37.12305 -13.40501 33208 ft 447 kts 217°
2026-05-04 13:00 37.07017 -13.44597 33210 ft 447 kts 217°
2026-05-04 13:01 37.01727 -13.48687 33209 ft 447 kts 217°
2026-05-04 13:01 36.96436 -13.52770 33201 ft 446 kts 217°
2026-05-04 13:02 36.91153 -13.56834 33198 ft 445 kts 216°
2026-05-04 13:02 36.85889 -13.60886 33205 ft 444 kts 216°
2026-05-04 13:03 36.80618 -13.64936 33208 ft 445 kts 216°
2026-05-04 13:03 36.75359 -13.68982 33208 ft 445 kts 216°
2026-05-04 13:04 36.70082 -13.73022 33207 ft 445 kts 216°
2026-05-04 13:04 36.64810 -13.77052 33194 ft 444 kts 216°
2026-05-04 13:05 36.59539 -13.81076 33206 ft 444 kts 216°
2026-05-04 13:05 36.54268 -13.85088 33207 ft 444 kts 216°
2026-05-04 13:06 36.49008 -13.89095 33198 ft 443 kts 216°
2026-05-04 13:06 36.43750 -13.93091 33216 ft 443 kts 216°
2026-05-04 13:07 36.38495 -13.97073 33199 ft 441 kts 217°
2026-05-04 13:07 36.33276 -14.01020 33207 ft 438 kts 217°
2026-05-04 13:08 36.28072 -14.04951 33205 ft 439 kts 217°
2026-05-04 13:08 36.22858 -14.08888 33207 ft 438 kts 217°
2026-05-04 13:09 36.17649 -14.12819 33208 ft 439 kts 217°
2026-05-04 13:09 36.12432 -14.16741 33187 ft 437 kts 218°
2026-05-04 13:10 36.07251 -14.20633 33206 ft 435 kts 218°
2026-05-04 13:10 36.02070 -14.24518 33210 ft 435 kts 217°
2026-05-04 13:11 35.96890 -14.28394 33207 ft 435 kts 217°
2026-05-04 13:11 35.91715 -14.32270 33206 ft 435 kts 217°
2026-05-04 13:12 35.86535 -14.36141 33186 ft 435 kts 217°
2026-05-04 13:12 35.81397 -14.39968 33203 ft 434 kts 217°
2026-05-04 13:13 35.76225 -14.43816 33206 ft 435 kts 217°
2026-05-04 13:13 35.71053 -14.47659 33205 ft 434 kts 217°
2026-05-04 13:14 35.65867 -14.51503 33209 ft 435 kts 217°
2026-05-04 13:14 35.60691 -14.55334 33189 ft 435 kts 217°
2026-05-04 13:15 35.55512 -14.59170 33201 ft 435 kts 217°
2026-05-04 13:15 35.50315 -14.63005 33206 ft 436 kts 217°
2026-05-04 13:16 35.45115 -14.66837 33203 ft 436 kts 217°
2026-05-04 13:16 35.39914 -14.70663 33204 ft 436 kts 217°
2026-05-04 13:17 35.34713 -14.74489 33204 ft 436 kts 217°
2026-05-04 13:17 35.29518 -14.78306 33193 ft 435 kts 217°
2026-05-04 13:18 35.24303 -14.82124 33198 ft 435 kts 217°
2026-05-04 13:18 35.19125 -14.85918 33200 ft 435 kts 217°
2026-05-04 13:19 35.13931 -14.89714 33202 ft 435 kts 217°
2026-05-04 13:19 35.08735 -14.93510 33202 ft 435 kts 217°
2026-05-04 13:20 35.03579 -14.97267 33200 ft 435 kts 217°
2026-05-04 13:20 34.98383 -15.01047 33197 ft 435 kts 217°
2026-05-04 13:21 34.94053 -15.04192 33195 ft 435 kts 217°
2026-05-04 13:21 34.88853 -15.07965 33194 ft 435 kts 217°
2026-05-04 13:22 34.83656 -15.11730 33195 ft 435 kts 217°
2026-05-04 13:22 34.78451 -15.15497 33188 ft 435 kts 217°
2026-05-04 13:23 34.73242 -15.19257 33191 ft 435 kts 217°
2026-05-04 13:23 34.68041 -15.23006 33188 ft 435 kts 217°
2026-05-04 13:24 34.62834 -15.26757 33191 ft 435 kts 216°
2026-05-04 13:24 34.57619 -15.30508 33192 ft 435 kts 217°
2026-05-04 13:25 34.49803 -15.36114 33169 ft 435 kts 216°
2026-05-04 13:25 34.44597 -15.39848 33179 ft 435 kts 216°
2026-05-04 13:26 34.39381 -15.43581 33178 ft 435 kts 216°
2026-05-04 13:26 34.34190 -15.47336 33186 ft 434 kts 218°
2026-05-04 13:27 34.29090 -15.51250 33184 ft 434 kts 218°
2026-05-04 13:27 34.23991 -15.55159 33151 ft 434 kts 217°
2026-05-04 13:28 34.18983 -15.58981 33158 ft 417 kts 217°
2026-05-04 13:28 34.16527 -15.60856 33043 ft 414 kts 217°
2026-05-04 13:28 34.14093 -15.62713 32754 ft 415 kts 217°
2026-05-04 13:29 34.11650 -15.64578 32437 ft 416 kts 217°
2026-05-04 13:29 34.09212 -15.66438 31959 ft 413 kts 217°
2026-05-04 13:29 34.06787 -15.68282 31442 ft 411 kts 217°
2026-05-04 13:29 34.04379 -15.70114 30910 ft 409 kts 217°
2026-05-04 13:30 34.01980 -15.71938 30403 ft 407 kts 217°
2026-05-04 13:30 33.99586 -15.73754 29841 ft 405 kts 217°
2026-05-04 13:30 33.97201 -15.75562 29267 ft 403 kts 216°
2026-05-04 13:30 33.94838 -15.77356 28782 ft 402 kts 216°
2026-05-04 13:31 33.92477 -15.79150 28278 ft 399 kts 216°
2026-05-04 13:31 33.90143 -15.80920 27790 ft 396 kts 216°
2026-05-04 13:31 33.87827 -15.82675 27298 ft 393 kts 216°
2026-05-04 13:31 33.85517 -15.84423 26799 ft 390 kts 216°
2026-05-04 13:32 33.83221 -15.86160 26307 ft 388 kts 216°
2026-05-04 13:32 33.80940 -15.87885 25819 ft 386 kts 216°
2026-05-04 13:32 33.78674 -15.89598 25354 ft 384 kts 216°
2026-05-04 13:32 33.76421 -15.91300 24883 ft 382 kts 216°
2026-05-04 13:33 33.74145 -15.93017 24403 ft 380 kts 216°
2026-05-04 13:33 33.71942 -15.94679 23942 ft 379 kts 215°
2026-05-04 13:33 33.69712 -15.96361 23446 ft 378 kts 215°
2026-05-04 13:33 33.67490 -15.98034 22928 ft 376 kts 215°
2026-05-04 13:34 33.65283 -15.99695 22446 ft 373 kts 215°
2026-05-04 13:34 33.63094 -16.01341 21965 ft 370 kts 215°
2026-05-04 13:34 33.60917 -16.02977 21486 ft 368 kts 215°
2026-05-04 13:34 33.58761 -16.04597 21027 ft 365 kts 214°
2026-05-04 13:35 33.56614 -16.06209 20576 ft 362 kts 214°
2026-05-04 13:35 33.52370 -16.09392 19670 ft 359 kts 214°
2026-05-04 13:35 33.50252 -16.10982 19198 ft 358 kts 214°
2026-05-04 13:36 33.48144 -16.12560 18759 ft 357 kts 214°
2026-05-04 13:36 33.46043 -16.14132 18299 ft 356 kts 214°
2026-05-04 13:36 33.43943 -16.15703 17790 ft 356 kts 214°
2026-05-04 13:36 33.41847 -16.17272 17284 ft 354 kts 214°
2026-05-04 13:37 33.39736 -16.18850 16755 ft 352 kts 214°
2026-05-04 13:37 33.37695 -16.20374 16258 ft 349 kts 214°
2026-05-04 13:37 33.35616 -16.21925 15774 ft 346 kts 214°
2026-05-04 13:37 33.34268 -16.22930 15494 ft 343 kts 214°
2026-05-04 13:38 33.31594 -16.24924 14912 ft 341 kts 214°
2026-05-04 13:38 33.29589 -16.26419 14460 ft 340 kts 213°
2026-05-04 13:38 33.27576 -16.27919 13994 ft 340 kts 213°
2026-05-04 13:38 33.25566 -16.29415 13508 ft 339 kts 213°
2026-05-04 13:39 33.23569 -16.30902 13045 ft 338 kts 213°
2026-05-04 13:39 33.21592 -16.32371 12602 ft 336 kts 213°
2026-05-04 13:39 33.19605 -16.33847 12141 ft 335 kts 213°
2026-05-04 13:39 33.17636 -16.35311 11682 ft 334 kts 213°
2026-05-04 13:40 33.15665 -16.36775 11231 ft 333 kts 213°
2026-05-04 13:40 33.13707 -16.38227 10829 ft 329 kts 213°
2026-05-04 13:40 33.11789 -16.39649 10603 ft 318 kts 213°
2026-05-04 13:40 33.09941 -16.41019 10446 ft 306 kts 213°
2026-05-04 13:41 33.08166 -16.42332 10273 ft 294 kts 213°
2026-05-04 13:41 33.06461 -16.43594 9922 ft 286 kts 213°
2026-05-04 13:41 33.04772 -16.44845 9380 ft 285 kts 213°
2026-05-04 13:42 33.01414 -16.47331 8465 ft 278 kts 212°
2026-05-04 13:42 32.99787 -16.48533 8079 ft 274 kts 212°
2026-05-04 13:42 32.98180 -16.49720 7720 ft 271 kts 212°
2026-05-04 13:42 32.96582 -16.50901 7398 ft 269 kts 212°
2026-05-04 13:43 32.94986 -16.52080 7058 ft 271 kts 212°
2026-05-04 13:43 32.93379 -16.53266 6700 ft 271 kts 212°
2026-05-04 13:43 32.91820 -16.54414 6384 ft 264 kts 212°
2026-05-04 13:43 32.90255 -16.55567 5821 ft 264 kts 212°
2026-05-04 13:44 32.88710 -16.56706 5014 ft 261 kts 211°
2026-05-04 13:44 32.87164 -16.57844 4142 ft 260 kts 211°
2026-05-04 13:44 32.85660 -16.58964 3685 ft 247 kts 214°
2026-05-04 13:44 32.84368 -16.60202 3428 ft 230 kts 221°
2026-05-04 13:45 32.83212 -16.61448 3026 ft 221 kts 221°
2026-05-04 13:45 32.82462 -16.62259 2836 ft 216 kts 221°